Theta_e
321 320 320 321 322 322 322 322 322 322 323 322 322 322 322 322 322 323 324 325 325 325 323 322 322 323 312 301 302 318 327 327 313 310 305 303 299 298 294 295 295 294 296 298 300 299 297
322 322 322 323 322 323 323 323 323 323 323 322 322 321 321 321 322 323 324 324 325 324 321 321 322 321 305 295 314 320 317 312 309 306 303 303 300 300 297 295 294 295 296 296 297 297 296
325 324 324 324 323 323 323 323 323 324 323 323 322 321 320 320 321 323 324 324 324 321 322 322 321 317 305 300 316 318 315 310 308 306 303 304 303 299 298 294 298 296 293 294 294 295 295
325 325 325 324 324 324 323 323 323 323 323 322 322 321 320 320 321 322 323 324 323 320 322 320 321 310 296 306 309 314 310 306 308 307 305 304 303 301 297 298 296 291 289 286 293 294 294
326 325 325 324 324 324 324 324 324 323 323 322 321 320 320 320 321 322 322 323 322 319 321 322 310 303 297 309 303 304 305 304 304 303 302 306 302 296 296 290 287 287 283 285 290 295 293
326 325 325 325 325 325 324 324 323 323 322 321 320 320 320 321 321 322 322 320 318 317 317 317 313 298 299 298 302 303 302 305 301 300 299 298 294 290 289 287 281 284 284 286 287 292 291
326 325 325 325 325 325 324 323 323 323 322 321 320 320 321 321 322 323 319 309 306 304 306 302 299 298 300 302 304 301 303 301 301 296 290 293 288 285 288 290 288 287 286 286 288 293 289
325 325 325 325 325 324 323 323 323 324 323 321 320 321 322 323 323 322 314 305 303 303 300 307 306 304 302 302 298 299 302 296 295 290 292 289 286 292 292 291 290 288 286 286 289 292 290
325 325 325 324 324 324 323 322 323 323 323 321 321 321 322 322 322 317 309 305 306 303 297 301 304 305 301 302 299 299 300 296 292 290 290 288 292 294 293 290 289 288 286 286 288 289 288
325 325 324 324 323 323 322 322 321 321 321 321 321 321 322 321 315 314 307 307 307 303 291 295 298 298 298 301 296 298 299 296 292 290 290 289 293 292 290 290 291 287 291 290 288 285 282
324 324 323 323 322 321 321 321 320 320 319 320 321 321 320 321 312 311 309 307 306 302 282 296 295 302 298 297 295 294 297 295 291 292 291 290 289 289 289 290 292 289 290 288 286 283 281
323 324 323 322 322 321 321 320 320 320 320 319 319 320 320 320 317 313 308 307 305 293 284 291 293 293 291 292 292 294 293 294 293 290 289 290 290 290 290 290 290 291 288 287 284 283 277
324 323 323 322 321 321 320 321 321 320 320 319 319 319 318 321 314 310 309 308 294 287 296 290 289 292 291 289 290 291 289 287 286 284 284 288 288 290 290 287 288 287 285 279 277 275 277
323 323 322 322 321 321 320 320 320 320 320 319 319 319 317 317 312 312 312 302 287 293 292 293 291 290 288 290 289 289 287 285 288 288 284 284 283 289 290 289 288 286 286 279 273 274 277
322 322 322 321 321 321 320 320 319 319 319 319 318 317 314 311 312 314 307 292 291 295 297 294 294 290 290 291 290 287 287 287 291 290 287 284 285 289 289 290 291 286 284 287 281 271 274
321 321 321 320 320 320 320 319 318 318 317 316 312 310 311 312 314 311 301 295 295 300 298 297 291 292 287 291 290 288 289 291 291 291 292 289 283 289 289 290 289 288 291 282 281 270 271
320 320 320 319 319 318 317 316 315 314 314 313 307 303 307 313 314 304 294 294 297 300 299 295 293 292 291 290 291 288 289 291 291 290 292 290 288 284 287 286 286 285 284 284 285 280 273
311 312 312 312 312 313 314 313 313 314 312 308 303 296 307 311 298 298 293 296 297 296 299 296 296 292 291 292 289 288 289 291 293 292 289 291 288 279 284 287 289 286 285 285 278 276 278
309 309 308 308 307 307 309 312 313 312 311 305 298 297 307 307 292 292 295 295 297 294 294 295 294 295 294 292 289 289 290 292 294 293 291 291 284 272 277 283 287 284 286 286 284 280 274
308 307 307 307 306 305 306 306 309 305 305 302 296 290 297 300 298 295 293 293 293 298 296 296 294 295 292 290 291 288 288 291 292 294 296 294 284 280 279 278 283 279 282 282 282 273 275
307 307 306 305 305 304 303 304 303 302 303 301 295 291 295 288 292 293 294 293 291 289 296 296 291 292 290 286 287 287 288 288 290 293 290 290 284 281 282 284 284 282 281 280 280 279 276
307 306 306 305 304 303 302 301 301 301 302 296 290 289 291 290 294 293 293 289 290 292 292 289 289 291 290 288 288 285 288 288 286 288 287 286 277 280 274 280 281 278 280 280 280 280 279
306 306 306 305 304 303 302 302 301 299 299 292 292 292 291 289 288 289 289 289 290 292 290 291 291 289 288 290 289 286 287 287 287 286 284 282 277 272 270 275 274 267 273 278 279 279 278
304 305 305 305 304 304 303 302 302 300 297 293 291 291 286 282 286 287 288 290 290 290 289 286 287 289 285 286 285 284 281 281 283 283 284 278 276 274 266 264 259 274 276 277 276 277 276
303 304 304 305 304 304 304 303 302 301 299 292 292 289 286 279 286 286 285 287 287 288 284 283 283 284 287 284 280 276 273 277 277 279 282 282 277 267 266 260 269 274 276 275 275 273 274
302 303 303 303 303 304 303 303 302 302 300 293 291 292 286 282 280 285 284 284 282 281 279 280 283 284 284 281 277 272 270 271 268 271 277 280 279 273 260 259 260 271 276 278 276 267 270
302 302 302 303 303 303 303 303 302 302 302 294 291 291 287 280 283 283 281 282 284 282 278 278 279 282 282 277 270 268 268 273 268 267 267 266 268 271 269 260 264 273 274 277 265 269 270
301 302 303 302 303 303 303 303 302 302 302 296 291 292 287 279 282 285 285 282 282 281 277 276 279 278 278 275 272 273 268 272 269 271 270 268 266 264 262 263 261 275 275 271 275 276 276
301 301 302 302 302 302 302 303 302 302 302 300 291 292 291 282 281 288 287 288 286 285 280 275 278 274 278 272 270 272 266 265 266 264 273 268 272 266 269 268 277 277 277 280 278 276 278
Wind_Speed
15 15 14 13 12 11 10 9 9 8 6 6 6 6 5 6 7 8 9 9 10 11 11 11 9 8 2 1 7 1 5 4 4 3 1 2 3 4 3 2 1 4 3 3 6 9 4
16 15 14 14 13 12 10 10 9 8 8 7 7 6 6 6 7 9 10 11 11 12 10 8 5 4 1 4 2 5 6 4 4 3 1 3 3 4 2 2 3 1 3 6 8 9 5
17 17 16 15 15 13 12 11 10 10 9 8 8 7 6 7 8 9 10 10 10 10 10 7 2 1 1 10 2 4 4 3 3 2 3 1 2 2 2 2 2 1 5 7 6 3 5
18 17 17 17 16 15 14 12 12 11 10 9 9 8 7 8 9 9 11 11 10 7 7 3 4 1 7 1 2 3 1 2 2 3 3 1 2 4 2 0 6 1 3 3 4 2 2
19 18 18 17 16 16 15 14 12 11 10 10 9 8 8 9 9 10 10 12 9 3 3 4 1 1 7 2 2 1 1 3 3 3 4 2 3 3 5 5 5 3 3 4 8 2 2
18 18 16 16 16 15 15 14 13 12 11 11 10 9 9 9 9 9 11 9 2 0 1 2 2 2 1 3 2 2 1 5 4 4 4 4 5 3 3 4 6 5 4 5 5 4 1
20 19 18 18 17 16 15 14 13 13 12 12 10 10 10 9 8 7 6 3 3 1 1 9 5 3 4 1 1 2 1 4 4 4 5 0 5 8 13 11 4 4 4 5 5 8 3
21 20 20 19 18 17 17 15 15 14 13 12 12 11 9 8 6 6 2 1 1 1 7 7 6 5 3 5 3 2 4 5 3 5 5 4 7 14 3 6 7 5 4 6 6 6 1
21 21 20 20 19 19 17 16 15 15 14 13 12 10 8 5 5 3 4 3 3 2 1 7 4 4 3 7 4 6 8 4 4 6 8 9 8 6 6 5 5 5 6 5 8 4 2
23 23 22 20 20 20 18 17 17 16 14 14 13 11 9 3 2 3 3 6 5 3 1 7 4 2 2 5 1 1 2 4 2 10 6 6 8 5 3 3 5 5 7 6 5 3 5
25 24 23 23 22 21 19 19 18 17 16 15 14 13 12 13 1 3 3 6 5 3 6 2 3 1 2 5 6 1 1 2 4 4 6 7 2 4 5 8 9 8 3 3 0 2 1
17 26 24 24 23 21 21 21 20 19 17 17 15 14 12 6 2 2 7 6 3 4 10 3 3 5 4 2 2 3 2 2 1 1 1 6 2 4 6 2 4 4 3 6 5 3 2
19 15 18 21 23 24 23 22 21 21 20 19 18 16 13 8 6 10 7 3 3 8 3 6 6 6 5 5 3 4 5 5 7 7 6 3 5 3 2 4 2 5 6 3 4 2 7
19 18 19 18 20 22 23 24 24 23 22 21 20 18 11 5 8 10 3 3 11 8 7 3 6 6 7 8 5 6 6 3 6 2 4 6 4 9 5 7 8 6 9 7 8 5 6
19 18 18 19 21 23 21 22 24 25 25 23 18 7 5 5 11 4 6 8 9 7 7 8 4 4 5 4 5 4 7 5 8 12 9 6 6 2 2 3 6 4 4 1 5 3 3
18 16 17 19 21 21 18 17 18 17 20 21 6 4 3 12 10 6 7 11 7 4 5 5 9 6 8 6 7 7 8 5 4 7 2 6 2 4 2 3 3 5 6 3 2 2 5
6 9 14 15 17 16 17 18 19 17 16 11 5 5 2 9 6 5 9 7 5 5 5 5 6 7 6 6 8 7 6 3 6 5 4 5 3 2 3 5 9 2 3 2 3 5 7
16 18 18 17 16 13 15 20 21 20 18 6 1 5 5 6 4 2 5 8 1 4 1 2 4 5 7 8 6 7 11 8 8 8 8 3 4 4 6 2 4 1 6 7 6 6 4
12 13 15 17 15 12 9 12 17 19 7 5 4 3 1 1 6 5 1 4 6 7 6 6 5 6 4 7 4 6 4 2 5 8 10 8 2 2 8 4 1 4 3 4 5 4 5
10 11 9 12 13 10 9 8 5 9 13 2 5 4 2 2 2 10 9 8 10 6 3 4 5 5 5 7 6 4 4 2 3 2 2 6 5 9 11 6 4 4 4 3 4 3 3
11 12 10 10 12 10 7 7 11 8 8 4 1 5 3 6 9 8 11 8 12 8 7 10 5 12 11 7 5 7 4 1 3 1 1 4 6 3 3 4 3 4 8 8 8 7 9
14 14 14 13 12 12 8 7 4 6 4 3 1 3 1 1 4 14 14 11 14 14 8 5 9 12 8 12 9 7 8 5 6 3 4 2 2 3 3 1 5 7 13 6 10 13 10
11 14 16 16 14 14 14 11 9 6 8 2 3 2 1 6 3 5 6 6 11 9 2 3 11 7 10 12 5 4 5 3 5 8 6 5 7 4 7 3 4 8 9 16 13 10 8
10 10 18 17 17 17 15 14 13 10 7 3 1 2 2 2 6 7 4 9 13 9 13 2 3 8 4 11 9 7 9 6 4 1 1 6 6 2 3 3 2 6 3 4 9 9 5
16 14 11 15 19 19 19 17 15 16 14 3 2 1 2 2 5 8 7 7 4 1 2 2 2 2 11 6 5 4 5 4 2 5 5 2 5 2 5 5 7 13 6 7 8 9 7
18 18 18 16 14 17 18 18 19 18 16 4 2 3 2 3 5 3 7 6 6 5 3 2 2 3 5 3 3 7 7 5 5 2 4 4 1 6 4 7 12 7 2 4 5 6 7
17 20 19 19 19 19 22 20 19 22 21 5 2 4 3 1 2 3 4 7 6 5 4 3 3 2 3 3 3 5 5 5 6 7 5 3 1 14 10 4 10 9 6 2 6 10 4
19 17 20 18 20 18 18 21 22 20 21 8 3 4 4 3 4 3 2 4 4 2 7 5 5 1 2 3 4 5 3 7 3 4 8 9 9 6 3 3 10 9 6 9 7 3 6
19 18 17 17 18 18 18 18 19 19 20 15 3 3 3 4 4 2 4 3 1 6 7 1 1 5 6 5 1 4 1 1 3 5 1 3 8 9 12 10 3 8 8 13 6 6 7
Wind_Direction
221 224 224 222 222 227 228 228 226 229 237 251 264 272 281 295 304 311 315 315 315 316 312 309 307 313 295 323 253 109 97 96 107 110 124 156 139 155 194 207 321 189 262 281 283 289 240
217 221 221 221 225 229 233 235 238 235 236 241 248 263 275 288 300 306 309 313 319 320 314 309 311 315 176 224 122 136 119 114 137 137 155 160 189 197 209 242 164 150 258 266 274 268 261
213 214 218 220 223 225 229 234 238 236 237 239 245 250 263 277 284 292 300 305 313 318 316 308 262 238 174 241 82 147 136 157 145 142 150 78 210 148 130 306 281 254 319 324 273 252 221
217 215 217 220 225 221 226 233 236 236 230 233 237 241 248 263 280 294 302 307 302 307 331 345 153 164 240 18 316 112 131 59 91 92 110 42 116 123 162 119 2 340 46 344 288 207 90
221 220 219 222 226 224 219 225 230 225 225 227 230 231 242 260 277 294 307 302 293 244 34 113 22 127 268 331 129 161 67 133 77 43 33 56 63 123 52 90 356 347 215 205 308 277 133
227 222 218 219 225 224 216 218 218 221 224 226 222 227 239 255 275 304 318 319 115 19 211 242 250 351 231 217 140 113 21 126 107 84 40 62 52 79 41 106 218 209 215 234 224 273 128
218 222 220 220 219 222 217 216 218 218 216 218 220 223 237 252 278 318 356 3 3 333 187 193 194 225 134 74 82 59 149 101 93 73 154 148 106 203 209 203 183 184 188 225 269 263 209
215 221 217 218 217 216 218 215 215 214 210 211 217 224 233 255 289 320 136 210 235 171 305 236 236 267 135 182 114 237 120 140 147 186 123 59 214 230 183 165 218 252 254 251 268 260 234
219 219 219 215 213 216 211 212 213 211 210 212 213 216 219 241 315 301 200 201 126 94 243 291 202 184 185 149 208 204 148 153 165 171 194 173 218 184 179 212 183 216 197 220 229 318 267
218 218 218 215 214 214 209 210 210 208 207 215 206 202 197 176 297 200 218 162 123 131 343 259 220 224 104 134 208 98 182 160 221 205 175 231 258 186 174 215 161 264 207 206 220 122 228
216 219 215 217 214 210 211 207 208 208 208 210 200 196 191 177 218 174 166 137 127 62 288 252 157 161 138 151 136 18 59 80 196 200 126 238 223 158 218 227 163 229 161 165 196 186 52
249 223 212 213 214 211 210 209 207 209 210 206 199 195 182 179 188 209 141 128 73 63 242 214 132 168 130 155 153 120 120 54 161 187 235 232 294 188 200 76 153 141 82 49 49 88 305
240 229 224 223 219 211 211 210 209 208 209 207 204 192 176 156 201 155 151 118 107 219 261 195 185 165 179 168 175 163 163 179 163 134 214 226 216 219 163 113 34 104 79 316 333 1 231
237 223 221 220 224 223 217 213 210 207 207 208 203 191 185 184 145 145 120 113 221 186 207 164 151 138 179 160 209 181 141 211 239 243 119 174 278 169 181 199 186 183 160 170 220 206 241
230 225 223 225 230 231 220 220 216 207 207 205 193 183 157 169 152 144 164 192 208 182 182 159 74 144 223 201 151 149 200 209 205 181 185 171 264 106 172 166 143 201 181 201 99 32 33
225 224 228 224 220 218 217 225 221 206 191 171 156 143 157 156 148 152 195 224 195 203 155 148 172 159 182 200 157 172 194 210 209 195 164 218 209 201 189 112 59 139 164 82 9 188 248
216 224 230 229 220 183 170 171 157 171 162 133 129 136 169 157 148 176 210 195 206 217 152 162 187 167 197 172 199 196 213 214 175 179 135 148 134 210 102 201 177 137 205 193 158 157 183
47 87 92 91 98 114 151 157 158 157 139 86 206 138 181 177 161 168 178 158 222 184 160 147 128 176 186 174 210 208 213 203 167 157 159 174 146 184 194 328 328 226 193 171 165 245 233
64 64 87 94 91 92 111 154 155 147 144 142 124 111 254 329 177 208 128 194 190 176 179 166 200 200 170 175 240 216 209 4 171 164 165 181 172 30 350 351 22 219 200 134 101 81 223
112 103 97 103 109 107 121 115 121 72 70 8 116 130 156 225 110 192 175 201 202 202 198 155 180 173 149 188 212 216 182 234 8 171 143 130 169 176 226 187 150 198 176 152 142 136 212
151 143 143 137 126 118 98 87 94 53 28 83 314 168 198 189 198 184 183 189 193 193 209 197 213 202 186 200 194 215 150 119 14 126 58 159 199 164 201 142 181 216 234 170 198 203 208
169 167 168 161 149 144 140 121 76 67 30 80 108 126 142 107 152 183 180 196 198 198 167 210 219 192 178 208 181 191 162 177 193 174 170 2 208 122 287 200 205 245 256 190 219 244 243
219 189 194 176 178 176 160 155 131 105 38 67 108 331 322 150 137 163 206 191 195 163 204 221 211 157 201 214 118 85 59 72 162 161 178 156 134 106 257 36 61 311 234 225 235 213 219
224 222 208 196 183 189 182 174 165 164 135 102 16 105 123 193 175 193 196 207 223 208 216 161 30 196 121 107 89 53 53 43 47 24 92 140 108 80 210 37 267 246 249 248 232 251 200
226 225 216 213 198 193 188 191 187 179 172 116 150 178 200 225 190 180 184 190 107 112 71 131 36 315 147 81 72 60 359 31 283 243 228 179 133 140 164 207 311 288 232 180 179 263 183
232 226 222 216 212 202 192 200 196 188 179 123 164 145 150 134 243 97 170 178 152 141 75 355 333 18 71 91 116 165 186 162 241 262 14 176 288 174 126 171 210 243 212 130 111 287 217
234 230 225 222 219 216 210 206 204 197 191 145 202 154 120 130 276 128 175 180 125 113 118 146 197 59 10 111 130 153 217 175 189 179 176 94 25 211 219 226 284 239 220 109 114 247 198
237 233 226 222 216 217 210 205 210 210 203 163 190 169 138 140 289 213 236 132 109 188 148 173 107 281 92 133 147 177 164 205 156 176 178 163 163 194 95 169 268 176 81 178 203 191 180
238 234 222 218 218 215 214 211 207 209 206 176 158 167 114 123 223 247 290 276 218 186 128 319 150 169 161 109 206 101 155 47 150 230 162 244 192 181 187 204 235 194 198 218 160 178 206